Weather History for Wise, VA

Change the Weather History Date:

Wednesday, February 1, 2012

  Actual Average Record
Temperature  
Mean Temperature 48 °F -  
Max Temperature 51 °F 40 °F 62 °F (2014)
Min Temperature 44 °F 25 °F 8 °F (2013)
Degree Days  
Heating Degree Days 18    
Moisture  
Dew Point 42 °F    
Average Humidity 83    
Maximum Humidity 100    
Minimum Humidity 30    
Precipitation  
Precipitation 0.13 in - - ()
Sea Level Pressure  
Sea Level Pressure 30.14 in    
Wind  
Wind Speed 13 mph (SW)    
Max Wind Speed 20 mph    
Max Gust Speed 25 mph    
Visibility 8 miles    
Events Rain    
Averages and records for this station are not official NWS values.
T = Trace of Precipitation, MM = Missing Value Source: NWS Daily Summary

Daily Weather History Graph

Daily Weather History Graph

Search for Another Location

Airport:

Trip Planner

Search our weather history database for the weather conditions in past years. The results will help you decide how hot, cold, wet, or windy it might be!

Date:

Astronomy

Feb. 01, 2012 Rise Set
Actual Time 7:33 AM EST 5:54 PM EST
Civil Twilight 7:05 AM EST 6:22 PM EST
Nautical Twilight 6:34 AM EST 6:53 PM EST
Astronomical Twilight 6:04 AM EST 7:23 PM EST
Moon 12:24 PM EST (2/1) 2:15 AM EST (2/1)
Length of Visible Light 11h 16m
Length of Day
10h 21m
Waxing Gibbous, 64% of the Moon is Illuminated
Feb 1
Waxing Gibbous
Feb 7
Full
Feb 14
Last Quarter
Feb 21
New
Feb 29
First Quarter

Hourly Weather History & Observations

Time (EST) Temp. Windchill Dew Point Humidity Pressure Visibility Wind Dir Wind Speed Gust Speed Precip Events Conditions
12:15 AM 51.8 °F - 21.2 °F 30% 30.20 in 10.0 mi SSW 11.5 mph 17.3 mph N/A   Mostly Cloudy
12:35 AM 51.8 °F - 21.2 °F 30% 30.20 in 10.0 mi SW 11.5 mph 17.3 mph N/A   Scattered Clouds
12:55 AM 51.8 °F - 23.0 °F 33% 30.19 in 10.0 mi SW 17.3 mph 24.2 mph N/A   Scattered Clouds
1:15 AM 51.8 °F - 23.0 °F 33% 30.19 in 10.0 mi SW 18.4 mph - N/A   Mostly Cloudy
1:35 AM 51.8 °F - 23.0 °F 33% 30.19 in 10.0 mi SW 17.3 mph 20.7 mph N/A   Overcast
1:55 AM 51.8 °F - 24.8 °F 35% 30.19 in 10.0 mi SW 15.0 mph 23.0 mph N/A   Mostly Cloudy
2:15 AM 51.8 °F - 26.6 °F 38% 30.20 in 10.0 mi SW 15.0 mph 25.3 mph N/A   Overcast
2:35 AM 51.8 °F - 26.6 °F 38% 30.19 in 10.0 mi SW 16.1 mph 24.2 mph N/A   Overcast
3:15 AM 50.0 °F - 28.4 °F 43% 30.18 in 10.0 mi SW 13.8 mph 23.0 mph N/A   Overcast
3:35 AM 50.0 °F - 28.4 °F 43% 30.18 in 10.0 mi SW 12.7 mph - N/A   Scattered Clouds
3:55 AM 50.0 °F - 28.4 °F 43% 30.17 in 10.0 mi SW 17.3 mph 23.0 mph N/A   Scattered Clouds
4:15 AM 50.0 °F - 30.2 °F 47% 30.17 in 10.0 mi SW 18.4 mph 23.0 mph N/A   Mostly Cloudy
4:35 AM 50.0 °F - 32.0 °F 50% 30.16 in 10.0 mi SW 19.6 mph 25.3 mph N/A   Overcast
4:55 AM 50.0 °F - 32.0 °F 50% 30.16 in 10.0 mi SW 18.4 mph 25.3 mph N/A   Scattered Clouds
5:15 AM 50.0 °F - 32.0 °F 50% 30.17 in 10.0 mi SW 16.1 mph 19.6 mph N/A   Scattered Clouds
5:35 AM 50.0 °F - 33.8 °F 54% 30.17 in 10.0 mi WSW 12.7 mph 18.4 mph N/A   Overcast
6:15 AM 50.0 °F - 35.6 °F 58% 30.17 in 10.0 mi SW 18.4 mph 23.0 mph N/A Rain Light Rain
6:35 AM 48.2 °F - 37.4 °F 66% 30.18 in 10.0 mi SW 16.1 mph 23.0 mph N/A Rain Rain
6:55 AM 44.6 °F 38.1 °F 41.0 °F 87% 30.18 in 10.0 mi SW 13.8 mph - N/A Rain Light Rain
7:15 AM 44.6 °F 39.7 °F 41.0 °F 87% 30.18 in 10.0 mi SSW 9.2 mph - N/A   Overcast
7:35 AM 46.4 °F 41.1 °F 41.0 °F 81% 30.18 in 10.0 mi SW 11.5 mph 16.1 mph N/A   Overcast
7:55 AM 46.4 °F 41.9 °F 41.0 °F 81% 30.18 in 10.0 mi SW 9.2 mph - N/A   Mostly Cloudy
8:15 AM 46.4 °F 42.4 °F 41.0 °F 81% 30.19 in 10.0 mi SW 8.1 mph - N/A   Mostly Cloudy
8:35 AM 48.2 °F - 42.8 °F 82% 30.19 in 10.0 mi SW 11.5 mph - N/A   Overcast
8:55 AM 48.2 °F - 42.8 °F 82% 30.19 in 10.0 mi SW 10.4 mph - N/A Rain Rain
9:15 AM 46.4 °F 41.1 °F 44.6 °F 93% 30.20 in 10.0 mi SW 11.5 mph - N/A   Drizzle
9:35 AM 46.4 °F 41.5 °F 44.6 °F 93% 30.20 in 10.0 mi WSW 10.4 mph - N/A   Drizzle
9:55 AM 46.4 °F 40.4 °F 46.4 °F 100% 30.20 in 7.0 mi SW 13.8 mph 21.9 mph N/A Rain Light Rain
10:15 AM 46.4 °F 40.4 °F 46.4 °F 100% 30.20 in 5.0 mi WSW 13.8 mph - 0.01 in Rain Rain
10:35 AM 46.4 °F 40.1 °F 46.4 °F 100% 30.21 in 5.0 mi SW 15.0 mph - 0.01 in Rain Rain
10:55 AM 46.4 °F 41.9 °F 46.4 °F 100% 30.20 in 3.0 mi SW 9.2 mph - 0.02 in Rain Rain
11:15 AM 46.4 °F 41.9 °F 46.4 °F 100% 30.20 in 5.0 mi WSW 9.2 mph - N/A Rain Rain
11:35 AM 48.2 °F - 48.2 °F 100% 30.18 in 7.0 mi SW 11.5 mph 17.3 mph N/A Rain Light Rain
11:55 AM 48.2 °F - 48.2 °F 100% 30.17 in 3.0 mi SW 10.4 mph - N/A   Drizzle
12:15 PM 50.0 °F - 50.0 °F 100% 30.16 in 5.0 mi SW 11.5 mph - N/A   Drizzle
12:35 PM 50.0 °F - 50.0 °F 100% 30.15 in 4.0 mi WSW 12.7 mph 18.4 mph 0.01 in   Light Drizzle
12:55 PM 50.0 °F - 50.0 °F 100% 30.14 in 4.0 mi SW 9.2 mph - 0.01 in   Light Drizzle
1:15 PM 50.0 °F - 50.0 °F 100% 30.14 in 5.0 mi SW 11.5 mph - N/A   Overcast
1:35 PM 50.0 °F - 50.0 °F 100% 30.12 in 5.0 mi SW 9.2 mph - N/A   Overcast
2:15 PM 50.0 °F - 50.0 °F 100% 30.12 in 10.0 mi SW 11.5 mph - N/A Rain Rain
2:35 PM 50.0 °F - 50.0 °F 100% 30.12 in 5.0 mi SW 8.1 mph - 0.01 in Rain Rain
2:55 PM 50.0 °F - 50.0 °F 100% 30.11 in 7.0 mi WSW 12.7 mph - 0.02 in Rain Rain
3:15 PM 50.0 °F - 50.0 °F 100% 30.11 in 7.0 mi SW 11.5 mph - 0.01 in Rain Rain
3:35 PM 50.0 °F - 50.0 °F 100% 30.11 in 10.0 mi WSW 13.8 mph - 0.02 in Rain Light Rain
3:55 PM 50.0 °F - 50.0 °F 100% 30.11 in 10.0 mi SW 12.7 mph - 0.02 in Rain Light Rain
4:15 PM 50.0 °F - 50.0 °F 100% 30.10 in 10.0 mi WSW 8.1 mph - N/A   Overcast
4:35 PM 50.0 °F - 50.0 °F 100% 30.10 in 10.0 mi SW 8.1 mph - N/A   Overcast
4:55 PM 50.0 °F - 50.0 °F 100% 30.09 in 10.0 mi SW 8.1 mph - N/A   Overcast
5:15 PM 50.0 °F - 50.0 °F 100% 30.09 in 7.0 mi SW 8.1 mph - N/A Rain Light Rain
5:35 PM 48.2 °F - 48.2 °F 100% 30.09 in 4.0 mi WSW 9.2 mph - N/A Rain Rain
5:55 PM 48.2 °F - 48.2 °F 100% 30.09 in 0.2 mi SW 8.1 mph - N/A Rain Light Rain
6:15 PM 48.2 °F - 48.2 °F 100% 30.09 in 0.8 mi WSW 9.2 mph - N/A Rain Rain
6:35 PM 48.2 °F - 48.2 °F 100% 30.09 in 0.8 mi WSW 6.9 mph - N/A Rain Rain
6:55 PM 48.2 °F - 48.2 °F 100% 30.09 in 2.5 mi SW 9.2 mph - 0.04 in Rain Heavy Rain
7:15 PM 48.2 °F - 48.2 °F 100% 30.08 in 5.0 mi SSW 10.4 mph - 0.02 in Rain Rain
7:35 PM 48.2 °F - 48.2 °F 100% 30.07 in 10.0 mi South 6.9 mph - 0.03 in Rain Light Rain
7:55 PM 48.2 °F - 48.2 °F 100% 30.08 in 10.0 mi West 6.9 mph - 0.03 in Rain Light Rain
8:15 PM 48.2 °F - 48.2 °F 100% 30.08 in 10.0 mi SW 8.1 mph - N/A   Overcast
8:35 PM 48.2 °F - 48.2 °F 100% 30.08 in 10.0 mi WSW 10.4 mph - N/A   Overcast
8:55 PM 50.0 °F - 50.0 °F 100% 30.08 in 10.0 mi WSW 10.4 mph - N/A   Overcast
9:15 PM 50.0 °F - 50.0 °F 100% 30.09 in 10.0 mi SW 12.7 mph - N/A   Overcast
9:35 PM 48.2 °F - 48.2 °F 100% 30.09 in 4.0 mi WSW 12.7 mph - N/A   Overcast
9:55 PM 48.2 °F - 48.2 °F 100% 30.08 in 3.0 mi WSW 12.7 mph - N/A   Overcast
10:15 PM 48.2 °F - 48.2 °F 100% 30.07 in 4.0 mi WSW 10.4 mph - N/A   Overcast
10:35 PM 48.2 °F - 48.2 °F 100% 30.07 in 10.0 mi SW 12.7 mph - N/A   Overcast
10:55 PM 48.2 °F - 48.2 °F 100% 30.07 in 4.0 mi WSW 15.0 mph - N/A   Overcast
11:15 PM 48.2 °F - 48.2 °F 100% 30.07 in 0.8 mi WSW 15.0 mph - N/A   Overcast
11:35 PM 48.2 °F - 48.2 °F 100% 30.06 in 0.5 mi SW 13.8 mph - N/A Fog Fog
11:55 PM 48.2 °F - 48.2 °F 100% 30.05 in 0.5 mi WSW 13.8 mph 17.3 mph N/A Fog Fog